User: anonymous   Login
Location: Sungai Anya
(2.6167°N, 114.0500°E)
Time: 11:41:17
(UTC+00:00)
Language:

Cosmos 1048 Rocket - Orbit

View from above orbital plane
View from above orbital plane
View from above satellite
View from above satellite

Ground track
Ground track

The orbit data is extracted from the following two-line orbital elements,

1 11112U 78105B   22025.89659698  .00000072  00000-0  32667-4 0  9995
2 11112  74.0326 308.1787 0032620  53.6293 306.7863 14.37350279261378
Epoch (UTC): 25 January 2022 21:31:05
Eccentricity: 0.0032620
inclination: 74.0326°
perigee height: 744 km
apogee height: 790 km
right ascension of ascending node: 308.1787°
argument of perigee: 53.6293°
revolutions per day: 14.37350279
mean anomaly at epoch: 306.7863°
orbit number at epoch: 26137

The dashed part of the orbit path shows where the satellite is in the earth's shadow,  

DLR